User: anonymous   Login
Location: Unspecified
(0.0000°N, 0.0000°E)
Time: 04:59:04
(UTC+00:00)
Language:

Tiangong 2 - Orbit

View from above orbital plane
View from above orbital plane
View from above satellite
View from above satellite

Ground track
Ground track

The orbit data is extracted from the following two-line orbital elements,

1 41765U 16057A   19049.76612008  .00003539  00000-0  45913-4 0  9991
2 41765  42.7852 313.0207 0006871 174.9358 233.3327 15.60715905138530
Epoch (UTC): 18 February 2019 18:23:12
Eccentricity: 0.0006871
inclination: 42.7852°
perigee height: 381 km
apogee height: 390 km
right ascension of ascending node: 313.0207°
argument of perigee: 174.9358°
revolutions per day: 15.60715905
mean anomaly at epoch: 233.3327°
orbit number at epoch: 13853

The dashed part of the orbit path shows where the satellite is in the earth's shadow,  

DLR